Mount Pleasant, IA

12:29 PM CST on February 20, 2018 (GMT -0600)
Mount Pleasant Municipal

Weather History for KMPZ - April, 2013

Change the Weather History Date:

Friday, April 26, 2013

  Actual Average Record
Temperature  
Mean Temperature 60 °F -  
Max Temperature 69 °F 69 °F 86 °F (1962)
Min Temperature 50 °F 46 °F 31 °F (1950)
Degree Days  
Heating Degree Days 6    
Growing Degree Days 10 (Base 50)    
Moisture  
Dew Point 38 °F    
Average Humidity 46    
Maximum Humidity 62    
Minimum Humidity 26    
Precipitation  
Precipitation 0.00 in - - ()
Sea Level Pressure  
Sea Level Pressure 30.23 in    
Wind  
Wind Speed 13 mph (South)    
Max Wind Speed 29 mph    
Max Gust Speed 34 mph    
Visibility 10 miles    
Events      
Averages and records for this station are not official NWS values.
T = Trace of Precipitation, MM = Missing Value Source: NWS Daily Summary

Daily Weather History Graph

Daily Weather History Graph

Search for Another Location

Airport or City:

Trip Planner

Search our weather history database for the weather conditions in past years. The results will help you decide how hot, cold, wet, or windy it might be!

Date:

Astronomy

Apr. 26, 2013 Rise Set
Actual Time 6:10 AM CDT 7:57 PM CDT
Civil Twilight 5:41 AM CDT 8:27 PM CDT
Nautical Twilight 5:05 AM CDT 9:03 PM CDT
Astronomical Twilight 4:27 AM CDT 9:41 PM CDT
Moon 9:21 PM CDT (4/26) 6:37 AM CDT (4/26)
Length of Visible Light 14h 46m
Length of Day
13h 47m
Full, 99% of the Moon is Illuminated
Apr 26
Full
May 2
Last Quarter
May 9
New
May 17
First Quarter
May 24
Full

Hourly Weather History & Observations

Time (CDT) Temp. Dew Point Humidity Pressure Visibility Wind Dir Wind Speed Gust Speed Precip Events Conditions
12:15 AM 51.3 °F 32.2 °F 48% 30.24 in 10.0 mi SE 9.2 mph - N/A   Clear
12:35 AM 51.8 °F 32.0 °F 47% 30.24 in 10.0 mi SE 9.2 mph - N/A   Clear
12:55 AM 50.2 °F 32.9 °F 52% 30.25 in 10.0 mi SSE 8.1 mph - N/A   Clear
1:15 AM 50.2 °F 32.2 °F 50% 30.24 in 10.0 mi SSE 8.1 mph - N/A   Clear
1:35 AM 50.5 °F 32.4 °F 50% 30.23 in 10.0 mi SSE 9.2 mph - N/A   Clear
1:55 AM 51.1 °F 32.2 °F 48% 30.22 in 10.0 mi SSE 10.4 mph - N/A   Clear
2:15 AM 50.7 °F 32.2 °F 49% 30.22 in 10.0 mi SSE 10.4 mph - N/A   Clear
2:35 AM 51.4 °F 32.0 °F 47% 30.21 in 10.0 mi SSE 12.7 mph - N/A   Clear
2:55 AM 52.2 °F 31.8 °F 46% 30.22 in 10.0 mi SSE 11.5 mph - N/A   Clear
3:15 AM 52.7 °F 31.8 °F 45% 30.22 in 10.0 mi SSE 11.5 mph - N/A   Clear
3:35 AM 52.7 °F 32.0 °F 45% 30.22 in 10.0 mi SSE 10.4 mph - N/A   Clear
3:55 AM 52.3 °F 32.0 °F 46% 30.22 in 10.0 mi SSE 11.5 mph - N/A   Clear
4:15 AM 52.7 °F 32.0 °F 45% 30.22 in 10.0 mi SSE 10.4 mph - N/A   Clear
4:35 AM 52.5 °F 32.2 °F 46% 30.21 in 10.0 mi SSE 10.4 mph - N/A   Clear
4:55 AM 51.8 °F 32.9 °F 49% 30.21 in 10.0 mi SSE 12.7 mph - N/A   Clear
5:15 AM 52.0 °F 33.3 °F 49% 30.21 in 10.0 mi South 9.2 mph - N/A   Clear
5:35 AM 51.6 °F 33.6 °F 50% 30.21 in 10.0 mi South 10.4 mph - N/A   Clear
5:55 AM 51.3 °F 34.0 °F 52% 30.20 in 10.0 mi South 11.5 mph - N/A   Clear
6:15 AM 51.3 °F 34.5 °F 53% 30.20 in 10.0 mi SSE 10.4 mph - N/A   Clear
6:35 AM 51.8 °F 34.9 °F 53% 30.19 in 10.0 mi SSE 12.7 mph - N/A   Clear
6:55 AM 51.8 °F 35.2 °F 53% 30.19 in 10.0 mi SSE 11.5 mph - N/A   Clear
7:15 AM 53.1 °F 35.6 °F 52% 30.19 in 10.0 mi SSE 12.7 mph - N/A   Clear
7:35 AM 53.6 °F 36.1 °F 52% 30.21 in 7.0 mi SSE 11.5 mph - N/A   Clear
7:55 AM 54.5 °F 36.9 °F 51% 30.22 in 10.0 mi South 10.4 mph - N/A   Clear
8:15 AM 55.8 °F 37.0 °F 49% 30.23 in 10.0 mi South 12.7 mph - N/A   Clear
8:35 AM 57.7 °F 37.9 °F 48% 30.23 in 10.0 mi South 13.8 mph - N/A   Clear
8:55 AM 58.8 °F 37.9 °F 46% 30.23 in 10.0 mi South 12.7 mph - N/A   Scattered Clouds
9:15 AM 59.9 °F 38.5 °F 45% 30.24 in 10.0 mi South 15.0 mph - N/A   Scattered Clouds
9:35 AM 61.2 °F 38.3 °F 43% 30.24 in 10.0 mi SSW 17.3 mph 24.2 mph N/A   Mostly Cloudy
9:55 AM 63.0 °F 39.2 °F 42% 30.24 in 10.0 mi SSW 18.4 mph 26.5 mph N/A   Scattered Clouds
10:15 AM 64.2 °F 39.7 °F 41% 30.24 in 10.0 mi SSW 23.0 mph 26.5 mph N/A   Clear
10:35 AM 66.6 °F 39.6 °F 37% 30.25 in 10.0 mi SSW 20.7 mph 34.5 mph N/A   Clear
10:55 AM 67.6 °F 38.1 °F 34% 30.25 in 10.0 mi SW 21.9 mph 28.8 mph N/A   Clear
11:15 AM 68.9 °F 35.8 °F 30% 30.25 in 10.0 mi SW 28.8 mph 34.5 mph N/A   Clear
11:35 AM 68.9 °F 34.0 °F 28% 30.25 in 10.0 mi SSW 20.7 mph 33.4 mph N/A   Clear
11:55 AM 68.0 °F 32.2 °F 26% 30.25 in 10.0 mi SSW 21.9 mph 33.4 mph N/A   Clear
12:15 PM 68.9 °F 33.6 °F 27% 30.25 in 10.0 mi South 21.9 mph 28.8 mph N/A   Mostly Cloudy
12:35 PM 67.1 °F 35.4 °F 31% 30.25 in 10.0 mi South 17.3 mph 25.3 mph N/A   Overcast
12:55 PM 68.2 °F 38.3 °F 33% 30.24 in 10.0 mi SSW 21.9 mph 26.5 mph N/A   Overcast
1:15 PM 69.3 °F 36.0 °F 29% 30.24 in 10.0 mi SW 20.7 mph - N/A   Scattered Clouds
1:35 PM 69.3 °F 37.9 °F 32% 30.23 in 10.0 mi South 23.0 mph 26.5 mph N/A   Clear
1:55 PM 68.7 °F 37.4 °F 32% 30.23 in 10.0 mi SSW 24.2 mph 33.4 mph N/A   Clear
2:15 PM 68.9 °F 37.9 °F 32% 30.23 in 10.0 mi South 21.9 mph 27.6 mph N/A   Scattered Clouds
2:35 PM 68.4 °F 37.6 °F 32% 30.23 in 10.0 mi South 25.3 mph 33.4 mph N/A   Scattered Clouds
2:55 PM 68.4 °F 39.9 °F 35% 30.22 in 10.0 mi South 21.9 mph 28.8 mph N/A   Scattered Clouds
3:15 PM 68.2 °F 39.2 °F 35% 30.21 in 10.0 mi South 25.3 mph 31.1 mph N/A   Clear
3:35 PM 67.6 °F 41.0 °F 38% 30.20 in 10.0 mi South 23.0 mph 32.2 mph N/A   Clear
3:55 PM 67.1 °F 42.3 °F 40% 30.20 in 10.0 mi South 18.4 mph 26.5 mph N/A   Clear
4:15 PM 67.1 °F 42.4 °F 41% 30.20 in 10.0 mi South 18.4 mph 25.3 mph N/A   Clear
4:35 PM 67.1 °F 42.4 °F 41% 30.20 in 10.0 mi South 21.9 mph - N/A   Scattered Clouds
4:55 PM 67.3 °F 42.6 °F 41% 30.20 in 10.0 mi South 18.4 mph 26.5 mph N/A   Scattered Clouds
5:15 PM 66.6 °F 42.4 °F 42% 30.20 in 10.0 mi SSW 20.7 mph 26.5 mph N/A   Scattered Clouds
5:35 PM 65.3 °F 42.6 °F 44% 30.22 in 10.0 mi SSW 17.3 mph 25.3 mph N/A   Scattered Clouds
5:55 PM 64.6 °F 43.0 °F 45% 30.23 in 10.0 mi SSW 15.0 mph - N/A   Mostly Cloudy
6:15 PM 64.0 °F 43.3 °F 47% 30.23 in 10.0 mi SSW 15.0 mph - N/A   Overcast
6:35 PM 63.9 °F 43.2 °F 47% 30.23 in 10.0 mi SSW 15.0 mph 20.7 mph N/A   Overcast
6:55 PM 63.5 °F 43.0 °F 47% 30.23 in 10.0 mi SSW 15.0 mph - N/A   Overcast
7:15 PM 62.8 °F 43.9 °F 50% 30.23 in 10.0 mi SSW 12.7 mph - N/A   Overcast
7:35 PM 62.4 °F 43.9 °F 51% 30.23 in 10.0 mi SSW 9.2 mph - N/A   Overcast
7:55 PM 61.7 °F 43.9 °F 52% 30.23 in 10.0 mi South 9.2 mph - N/A   Overcast
8:15 PM 61.2 °F 44.2 °F 54% 30.23 in 10.0 mi South 9.2 mph - N/A   Overcast
8:35 PM 61.0 °F 44.1 °F 54% 30.23 in 10.0 mi South 10.4 mph - N/A   Overcast
8:55 PM 60.4 °F 44.6 °F 56% 30.24 in 10.0 mi South 8.1 mph - N/A   Overcast
9:15 PM 60.1 °F 44.2 °F 56% 30.25 in 10.0 mi South 5.8 mph - N/A   Overcast
9:35 PM 59.0 °F 44.1 °F 58% 30.25 in 10.0 mi South 6.9 mph - N/A   Overcast
9:55 PM 58.3 °F 44.1 °F 59% 30.26 in 10.0 mi South 3.5 mph - N/A   Overcast
10:15 PM 57.9 °F 44.1 °F 60% 30.26 in 10.0 mi South 3.5 mph - N/A   Overcast
10:35 PM 57.4 °F 43.9 °F 61% 30.26 in 10.0 mi South 4.6 mph - N/A   Mostly Cloudy
10:55 PM 56.8 °F 43.9 °F 62% 30.26 in 10.0 mi South 4.6 mph - N/A   Mostly Cloudy
11:15 PM 57.4 °F 43.9 °F 61% 30.25 in 10.0 mi Calm Calm - N/A   Overcast
11:35 PM 57.2 °F 43.7 °F 61% 30.26 in 10.0 mi SSW 3.5 mph - N/A   Overcast
11:55 PM 57.0 °F 44.1 °F 62% 30.26 in 10.0 mi South 4.6 mph - N/A   Overcast